DLH1188 EDDF-EGLL

Flight info

Callsign DLH1188
Flight time 0h 45m
Altitude 38000
Route OBOKA3W/25C OBOKA Z29 TORNU DCT ABNED L980 LOGAN
Aircraft A320/M-SDE3FGHIRWY/LB1

Departure

Time 2026-05-05 15:12
Airport Frankfurt Main Airport (EDDF)

Arrival

Time 2026-05-05 15:58
Airport London Heathrow Airport (EGLL)
Time Latitude Longitude Altitude Speed Heading
2026-05-05 14:52 50.04530 8.56591 362 ft 0 kts 116°
2026-05-05 15:00 50.04532 8.56587 352 ft 3 kts 116°
2026-05-05 15:00 50.04544 8.56551 360 ft 4 kts 118°
2026-05-05 15:01 50.04557 8.56514 359 ft 4 kts 124°
2026-05-05 15:01 50.04574 8.56483 363 ft 4 kts 145°
2026-05-05 15:01 50.04594 8.56472 360 ft 2 kts 205°
2026-05-05 15:01 50.04595 8.56473 361 ft 0 kts 206°
2026-05-05 15:04 50.04590 8.56469 360 ft 2 kts 206°
2026-05-05 15:04 50.04560 8.56447 362 ft 7 kts 206°
2026-05-05 15:04 50.04514 8.56388 357 ft 10 kts 248°
2026-05-05 15:04 50.04492 8.56282 357 ft 11 kts 250°
2026-05-05 15:05 50.04437 8.56065 364 ft 10 kts 241°
2026-05-05 15:05 50.04373 8.56040 359 ft 11 kts 162°
2026-05-05 15:05 50.04303 8.56098 354 ft 12 kts 128°
2026-05-05 15:06 50.04268 8.56191 355 ft 8 kts 145°
2026-05-05 15:06 50.04229 8.56213 355 ft 4 kts 160°
2026-05-05 15:06 50.04214 8.56222 350 ft 5 kts 160°
2026-05-05 15:06 50.04152 8.56258 350 ft 13 kts 157°
2026-05-05 15:07 50.04155 8.56390 349 ft 15 kts 69°
2026-05-05 15:07 50.04190 8.56542 352 ft 13 kts 70°
2026-05-05 15:07 50.04214 8.56642 354 ft 8 kts 67°
2026-05-05 15:07 50.04239 8.56743 351 ft 15 kts 70°
2026-05-05 15:08 50.04286 8.56938 357 ft 22 kts 69°
2026-05-05 15:08 50.04337 8.57155 345 ft 20 kts 70°
2026-05-05 15:08 50.04382 8.57342 343 ft 17 kts 69°
2026-05-05 15:08 50.04421 8.57506 339 ft 12 kts 69°
2026-05-05 15:09 50.04438 8.57577 348 ft 7 kts 70°
2026-05-05 15:09 50.04463 8.57684 348 ft 14 kts 70°
2026-05-05 15:09 50.04506 8.57868 337 ft 20 kts 70°
2026-05-05 15:09 50.04553 8.58068 337 ft 19 kts 69°
2026-05-05 15:10 50.04600 8.58264 333 ft 18 kts 70°
2026-05-05 15:10 50.04640 8.58428 333 ft 16 kts 68°
2026-05-05 15:10 50.04622 8.58574 326 ft 16 kts 154°
2026-05-05 15:10 50.04523 8.58626 325 ft 12 kts 172°
2026-05-05 15:11 50.04483 8.58566 328 ft 7 kts 252°
2026-05-05 15:11 50.04480 8.58553 327 ft 0 kts 250°
2026-05-05 15:11 50.04479 8.58547 328 ft 4 kts 250°
2026-05-05 15:12 50.04390 8.58173 330 ft 73 kts 250°
2026-05-05 15:12 50.04140 8.57135 350 ft 129 kts 249°
2026-05-05 15:12 50.03776 8.55630 585 ft 155 kts 249°
2026-05-05 15:12 50.03393 8.54054 1325 ft 156 kts 249°
2026-05-05 15:13 50.02998 8.52432 1880 ft 171 kts 248°
2026-05-05 15:13 50.02514 8.50590 2293 ft 194 kts 240°
2026-05-05 15:13 50.01631 8.48965 3018 ft 201 kts 217°
2026-05-05 15:13 50.00381 8.48050 3821 ft 204 kts 193°
2026-05-05 15:14 49.98970 8.47723 4656 ft 206 kts 189°
2026-05-05 15:14 49.97548 8.47417 5477 ft 207 kts 189°
2026-05-05 15:14 49.96115 8.47081 6277 ft 209 kts 194°
2026-05-05 15:14 49.94644 8.46424 6728 ft 231 kts 197°
2026-05-05 15:15 49.93054 8.45657 7327 ft 244 kts 202°
2026-05-05 15:15 49.91578 8.44320 8135 ft 249 kts 219°
2026-05-05 15:15 49.90426 8.42323 8970 ft 255 kts 236°
2026-05-05 15:15 49.89506 8.39932 9829 ft 260 kts 238°
2026-05-05 15:16 49.88796 8.37299 10538 ft 269 kts 255°
2026-05-05 15:16 49.88613 8.34323 11031 ft 290 kts 271°
2026-05-05 15:16 49.88779 8.31115 11302 ft 314 kts 273°
2026-05-05 15:16 49.89204 8.27660 11671 ft 336 kts 286°
2026-05-05 15:17 49.90194 8.24324 12352 ft 346 kts 300°
2026-05-05 15:17 49.91593 8.21244 12731 ft 349 kts 305°
2026-05-05 15:17 49.93039 8.18201 12845 ft 349 kts 305°
2026-05-05 15:17 49.94620 8.15340 12856 ft 350 kts 315°
2026-05-05 15:18 49.96446 8.12876 12856 ft 351 kts 319°
2026-05-05 15:18 49.98308 8.10401 12853 ft 350 kts 318°
2026-05-05 15:18 50.00156 8.07932 12853 ft 350 kts 318°
2026-05-05 15:18 50.02003 8.05458 12852 ft 351 kts 318°
2026-05-05 15:19 50.03863 8.02965 13251 ft 355 kts 318°
2026-05-05 15:19 50.05736 8.00445 14057 ft 357 kts 318°
2026-05-05 15:19 50.07608 7.97930 14736 ft 360 kts 318°
2026-05-05 15:19 50.09527 7.95353 15409 ft 364 kts 318°
2026-05-05 15:20 50.11434 7.92788 16036 ft 368 kts 318°
2026-05-05 15:20 50.13385 7.90161 16685 ft 372 kts 318°
2026-05-05 15:20 50.15353 7.87510 17335 ft 375 kts 318°
2026-05-05 15:20 50.22612 7.77696 19551 ft 388 kts 318°
2026-05-05 15:21 50.32016 7.69377 21713 ft 403 kts 336°
2026-05-05 15:21 50.42464 7.62180 23774 ft 418 kts 335°
2026-05-05 15:21 50.53300 7.54692 25520 ft 430 kts 335°
2026-05-05 15:21 50.63684 7.44880 27097 ft 440 kts 325°
2026-05-05 15:22 50.73724 7.33601 28636 ft 444 kts 309°
2026-05-05 15:22 50.79892 7.17087 30015 ft 447 kts 294°
2026-05-05 15:22 50.85672 6.99428 31143 ft 455 kts 293°
2026-05-05 15:22 50.91474 6.81371 32566 ft 456 kts 292°
2026-05-05 15:23 50.97180 6.63527 34014 ft 455 kts 291°
2026-05-05 15:23 51.02826 6.45733 35444 ft 447 kts 292°
2026-05-05 15:23 51.08368 6.28112 36562 ft 445 kts 292°
2026-05-05 15:23 51.13822 6.10462 37581 ft 440 kts 287°
2026-05-05 15:24 51.16946 5.91727 37863 ft 433 kts 281°
2026-05-05 15:24 51.20900 5.73728 37990 ft 435 kts 289°
2026-05-05 15:24 51.25603 5.55825 37825 ft 439 kts 289°
2026-05-05 15:25 51.34902 5.20056 37979 ft 432 kts 289°
2026-05-05 15:25 51.44097 4.84110 37815 ft 437 kts 289°
2026-05-05 15:25 51.48646 4.66148 37953 ft 430 kts 289°
2026-05-05 15:26 51.53159 4.48176 37924 ft 433 kts 289°
2026-05-05 15:26 51.57581 4.30386 37813 ft 433 kts 289°
2026-05-05 15:26 51.62019 4.12400 37962 ft 431 kts 289°
2026-05-05 15:27 51.70708 3.76763 37921 ft 432 kts 289°
2026-05-05 15:27 51.79108 3.41756 37937 ft 432 kts 288°
2026-05-05 15:28 51.84075 3.04692 37927 ft 421 kts 261°
2026-05-05 15:28 51.82892 2.86173 37931 ft 422 kts 262°
2026-05-05 15:28 51.82585 2.81427 37524 ft 426 kts 262°
2026-05-05 15:29 51.82271 2.76677 37040 ft 422 kts 262°
2026-05-05 15:29 51.81951 2.71983 36552 ft 417 kts 261°
2026-05-05 15:29 51.81630 2.67341 36065 ft 414 kts 261°
2026-05-05 15:29 51.81312 2.62731 35559 ft 411 kts 261°
2026-05-05 15:30 51.80998 2.58196 35072 ft 408 kts 261°
2026-05-05 15:30 51.80683 2.53647 34579 ft 405 kts 261°
2026-05-05 15:30 51.80368 2.49098 34085 ft 403 kts 261°
2026-05-05 15:30 51.80057 2.44658 33554 ft 401 kts 261°
2026-05-05 15:31 51.79742 2.40201 33076 ft 397 kts 261°
2026-05-05 15:31 51.79429 2.35800 32598 ft 393 kts 261°
2026-05-05 15:31 51.79115 2.31422 32135 ft 389 kts 261°
2026-05-05 15:31 51.78804 2.27091 31669 ft 386 kts 261°
2026-05-05 15:32 51.78498 2.22838 31213 ft 382 kts 261°
2026-05-05 15:32 51.78207 2.18585 30771 ft 379 kts 261°
2026-05-05 15:32 51.77952 2.14368 30343 ft 375 kts 262°
2026-05-05 15:32 51.77718 2.10182 29906 ft 372 kts 262°
2026-05-05 15:33 51.77492 2.06070 29473 ft 368 kts 262°
2026-05-05 15:33 51.77261 2.01976 29070 ft 363 kts 262°
2026-05-05 15:33 51.77026 1.97942 28678 ft 358 kts 262°
2026-05-05 15:33 51.76791 1.93963 28306 ft 353 kts 261°
2026-05-05 15:34 51.76560 1.90085 27930 ft 349 kts 262°
2026-05-05 15:34 51.76324 1.86199 27545 ft 345 kts 262°
2026-05-05 15:34 51.76086 1.82349 27166 ft 343 kts 262°
2026-05-05 15:34 51.75849 1.78580 26784 ft 341 kts 261°
2026-05-05 15:35 51.75608 1.74753 26392 ft 340 kts 261°
2026-05-05 15:35 51.75373 1.70988 25993 ft 338 kts 261°
2026-05-05 15:35 51.75137 1.67214 25603 ft 337 kts 262°
2026-05-05 15:35 51.74902 1.63459 25197 ft 336 kts 261°
2026-05-05 15:36 51.74667 1.59713 24775 ft 336 kts 262°
2026-05-05 15:36 51.74423 1.55849 24237 ft 353 kts 261°
2026-05-05 15:36 51.74171 1.51930 23703 ft 355 kts 261°
2026-05-05 15:36 51.73914 1.47953 23122 ft 357 kts 261°
2026-05-05 15:37 51.73656 1.43969 22581 ft 356 kts 262°
2026-05-05 15:37 51.72816 1.31026 20804 ft 357 kts 262°
2026-05-05 15:37 51.71751 1.15036 18700 ft 359 kts 263°
2026-05-05 15:37 51.71179 1.06601 17475 ft 363 kts 263°
2026-05-05 15:38 51.70910 1.02652 17254 ft 353 kts 263°
2026-05-05 15:38 51.70645 0.98756 16663 ft 346 kts 264°
2026-05-05 15:38 51.70382 0.94906 15937 ft 341 kts 264°
2026-05-05 15:38 51.70118 0.91125 15485 ft 339 kts 264°
2026-05-05 15:39 51.69853 0.87340 15023 ft 340 kts 264°
2026-05-05 15:39 51.69590 0.83571 14614 ft 338 kts 264°
2026-05-05 15:39 51.69415 0.81077 14360 ft 336 kts 264°
2026-05-05 15:39 51.69150 0.77322 13998 ft 334 kts 264°
2026-05-05 15:40 51.68886 0.73631 13617 ft 332 kts 264°
2026-05-05 15:40 51.68536 0.68730 13034 ft 330 kts 264°
2026-05-05 15:40 51.68360 0.66251 12745 ft 329 kts 264°
2026-05-05 15:40 51.68101 0.62589 12349 ft 326 kts 264°
2026-05-05 15:41 51.67846 0.59031 11786 ft 321 kts 264°
2026-05-05 15:41 51.67588 0.55478 11104 ft 317 kts 264°
2026-05-05 15:41 51.67333 0.51959 10686 ft 316 kts 264°
2026-05-05 15:41 51.67076 0.48456 10315 ft 313 kts 264°
2026-05-05 15:42 51.66822 0.45008 10095 ft 305 kts 264°
2026-05-05 15:42 51.66574 0.41665 9881 ft 293 kts 264°
2026-05-05 15:42 51.66338 0.38468 9239 ft 289 kts 264°
2026-05-05 15:42 51.66100 0.35248 8644 ft 289 kts 264°
2026-05-05 15:43 51.65865 0.32085 8247 ft 286 kts 264°
2026-05-05 15:43 51.65629 0.28906 7863 ft 285 kts 264°
2026-05-05 15:43 51.65392 0.25728 7461 ft 283 kts 265°
2026-05-05 15:43 51.65154 0.22581 7176 ft 278 kts 264°
2026-05-05 15:44 51.64925 0.19566 7000 ft 268 kts 264°
2026-05-05 15:44 51.64704 0.16663 6980 ft 253 kts 265°
2026-05-05 15:44 51.64512 0.13883 6907 ft 247 kts 267°
2026-05-05 15:44 51.64405 0.11178 6748 ft 244 kts 269°
2026-05-05 15:45 51.64330 0.08450 6574 ft 243 kts 269°
2026-05-05 15:45 51.64261 0.05733 6417 ft 243 kts 270°
2026-05-05 15:45 51.64190 0.03003 6249 ft 243 kts 269°
2026-05-05 15:45 51.64114 0.00287 6077 ft 243 kts 269°
2026-05-05 15:46 51.64032 -0.02426 5975 ft 243 kts 270°
2026-05-05 15:46 51.63946 -0.05142 5820 ft 243 kts 269°
2026-05-05 15:46 51.63858 -0.07856 5677 ft 242 kts 268°
2026-05-05 15:46 51.63767 -0.10560 5534 ft 241 kts 269°
2026-05-05 15:47 51.63676 -0.13266 5385 ft 241 kts 269°
2026-05-05 15:47 51.63587 -0.15950 5222 ft 240 kts 268°
2026-05-05 15:47 51.63496 -0.18633 5067 ft 240 kts 269°
2026-05-05 15:47 51.63407 -0.21286 4909 ft 239 kts 269°
2026-05-05 15:48 51.63314 -0.23977 4750 ft 240 kts 269°
2026-05-05 15:48 51.63221 -0.26656 4586 ft 239 kts 269°
2026-05-05 15:48 51.63128 -0.29346 4427 ft 240 kts 269°
2026-05-05 15:48 51.63036 -0.32023 4267 ft 240 kts 269°
2026-05-05 15:49 51.62941 -0.34690 4145 ft 239 kts 269°
2026-05-05 15:49 51.62847 -0.37311 3888 ft 237 kts 268°
2026-05-05 15:49 51.62751 -0.39969 3711 ft 237 kts 269°
2026-05-05 15:49 51.62655 -0.42625 3552 ft 237 kts 268°
2026-05-05 15:50 51.62558 -0.45269 3397 ft 236 kts 268°
2026-05-05 15:50 51.62462 -0.47904 3242 ft 236 kts 268°
2026-05-05 15:50 51.62367 -0.50510 3098 ft 236 kts 269°
2026-05-05 15:50 51.62242 -0.53151 3001 ft 236 kts 265°
2026-05-05 15:51 51.62001 -0.55785 3004 ft 243 kts 255°
2026-05-05 15:51 51.61293 -0.58292 3012 ft 246 kts 242°
2026-05-05 15:51 51.60458 -0.60671 3007 ft 242 kts 241°
2026-05-05 15:51 51.59634 -0.62978 3014 ft 240 kts 241°
2026-05-05 15:52 51.58803 -0.65302 3006 ft 238 kts 241°
2026-05-05 15:52 51.57977 -0.67618 3015 ft 237 kts 241°
2026-05-05 15:52 51.57157 -0.69910 3005 ft 239 kts 241°
2026-05-05 15:52 51.56320 -0.72220 3013 ft 239 kts 238°
2026-05-05 15:53 51.55115 -0.74054 3015 ft 241 kts 206°
2026-05-05 15:53 51.53516 -0.74708 3020 ft 239 kts 184°
2026-05-05 15:53 51.51906 -0.74710 2999 ft 224 kts 163°
2026-05-05 15:53 51.50591 -0.73539 2918 ft 214 kts 130°
2026-05-05 15:54 51.49689 -0.71728 2766 ft 204 kts 122°
2026-05-05 15:54 51.48892 -0.69870 2510 ft 201 kts 121°
2026-05-05 15:54 51.48139 -0.68087 2243 ft 188 kts 118°
2026-05-05 15:54 51.47704 -0.66236 2056 ft 168 kts 95°
2026-05-05 15:55 51.47674 -0.64414 1986 ft 162 kts 86°
2026-05-05 15:55 51.47684 -0.62538 1839 ft 162 kts 86°
2026-05-05 15:55 51.47691 -0.60801 1618 ft 149 kts 86°
2026-05-05 15:55 51.47698 -0.59180 1442 ft 143 kts 86°
2026-05-05 15:56 51.47698 -0.57631 1297 ft 140 kts 87°
2026-05-05 15:56 51.47698 -0.56065 1113 ft 139 kts 87°
2026-05-05 15:56 51.47720 -0.54511 881 ft 140 kts 86°
2026-05-05 15:56 51.47737 -0.52940 595 ft 141 kts 87°
2026-05-05 15:57 51.47733 -0.51366 437 ft 142 kts 87°
2026-05-05 15:57 51.47743 -0.49812 299 ft 142 kts 86°
2026-05-05 15:57 51.47748 -0.48234 118 ft 141 kts 87°
2026-05-05 15:57 51.47761 -0.46811 89 ft 102 kts 89°
2026-05-05 15:58 51.47760 -0.45941 85 ft 53 kts 90°
2026-05-05 15:58 51.47748 -0.45507 88 ft 28 kts 124°
2026-05-05 15:58 51.47657 -0.45464 86 ft 9 kts 179°
2026-05-05 15:58 51.47606 -0.45432 89 ft 7 kts 125°
2026-05-05 15:59 51.47600 -0.45358 86 ft 6 kts 89°
2026-05-05 15:59 51.47599 -0.45294 86 ft 5 kts 91°
2026-05-05 15:59 51.47598 -0.45235 86 ft 7 kts 91°
2026-05-05 15:59 51.47597 -0.45123 86 ft 13 kts 90°
2026-05-05 16:00 51.47597 -0.44940 86 ft 19 kts 89°
2026-05-05 16:00 51.47600 -0.44699 87 ft 18 kts 89°
2026-05-05 16:00 51.47535 -0.44655 86 ft 11 kts 179°
2026-05-05 16:00 51.47500 -0.44586 87 ft 8 kts 122°
2026-05-05 16:01 51.47455 -0.44559 87 ft 7 kts 175°
2026-05-05 16:01 51.47411 -0.44557 86 ft 6 kts 179°
2026-05-05 16:01 51.47351 -0.44558 86 ft 10 kts 180°
2026-05-05 16:01 51.47283 -0.44559 86 ft 10 kts 180°
2026-05-05 16:02 51.47215 -0.44559 86 ft 10 kts 180°
2026-05-05 16:02 51.47139 -0.44557 86 ft 11 kts 179°
2026-05-05 16:02 51.47066 -0.44555 86 ft 10 kts 179°
2026-05-05 16:02 51.47000 -0.44554 86 ft 9 kts 180°
2026-05-05 16:03 51.46940 -0.44555 86 ft 8 kts 180°
2026-05-05 16:03 51.46884 -0.44555 86 ft 8 kts 180°
2026-05-05 16:03 51.46860 -0.44591 87 ft 4 kts 258°
2026-05-05 16:03 51.46859 -0.44635 89 ft 4 kts 267°
2026-05-05 16:04 51.46858 -0.44671 89 ft 3 kts 267°
2026-05-05 16:04 51.46857 -0.44680 89 ft 0 kts 267°